�N����,����,�~����,�C��,���x,�C��,����,���ϕ���,�ő�u�ԕ���,�ő厞����,���˗�,�I�_���x,�n�����x,�ő啗���N��,DTYPE
"22/02/11","00:10",0.0,4.2,86.3,1013.3,330.9,4.5,6.5,337.3,0.00,2.2,6.4,"00:06:56",1
"22/02/11","00:20",0.0,4.2,86.6,1013.8,329.7,4.6,6.8,328.4,0.00,2.2,6.3,"00:12:32",1
"22/02/11","00:30",0.0,4.2,86.9,1013.3,330.4,4.1,6.4,336.0,0.00,2.3,6.4,"00:28:56",1
"22/02/11","00:40",0.0,4.1,87.1,1013.8,327.3,3.9,6.2,321.9,0.00,2.2,6.4,"00:35:20",1
"22/02/11","00:50",0.0,3.9,87.4,1013.5,326.6,3.9,5.5,309.9,0.00,2.0,6.4,"00:40:24",1
"22/02/11","01:00",0.0,3.9,87.8,1013.5,329.2,3.4,5.8,307.5,0.00,2.1,6.5,"00:50:32",1
"22/02/11","01:10",0.0,3.7,88.3,1013.8,327.5,3.4,5.9,322.9,0.00,2.0,6.6,"01:09:44",1
"22/02/11","01:20",0.0,3.8,88.6,1014.0,329.3,3.5,5.6,331.2,0.00,2.1,6.3,"01:18:00",1
"22/02/11","01:30",0.0,3.9,88.8,1013.3,321.2,3.1,5.4,311.4,0.00,2.3,6.3,"01:24:48",1
"22/02/11","01:40",0.0,3.7,89.1,1013.5,324.0,2.6,4.2,334.1,0.00,2.1,6.1,"01:36:32",1
"22/02/11","01:50",0.0,3.1,89.5,1013.3,332.9,2.3,3.7,326.6,0.00,1.6,6.3,"01:45:04",1
"22/02/11","02:00",0.0,2.7,90.0,1013.3,328.5,2.2,3.1,329.6,0.00,1.3,6.2,"01:52:32",1
"22/02/11","02:10",0.0,2.4,90.4,1013.0,337.6,2.3,3.5,341.4,0.00,1.0,6.1,"02:06:40",1
"22/02/11","02:20",0.0,2.1,90.9,1013.3,316.3,2.5,3.3,336.1,0.00,0.8,6.0,"02:10:56",1
"22/02/11","02:30",0.0,2.3,91.4,1013.5,302.6,3.2,4.8,311.7,0.00,1.1,6.0,"02:26:32",1
"22/02/11","02:40",0.0,2.1,91.7,1014.0,324.8,3.2,4.2,329.6,0.00,0.9,6.1,"02:32:40",1
"22/02/11","02:50",0.0,2.1,92.2,1013.5,322.7,2.3,3.2,292.4,0.00,1.0,6.1,"02:45:36",1
"22/02/11","03:00",0.0,2.3,92.6,1013.8,318.9,2.7,4.0,322.1,0.00,1.3,6.1,"02:55:04",1
"22/02/11","03:10",0.0,2.4,92.6,1013.8,322.2,2.2,3.1,322.6,0.00,1.4,6.1,"03:01:04",1
"22/02/11","03:20",0.0,2.2,92.8,1014.0,322.3,2.1,3.3,318.1,0.00,1.2,6.2,"03:10:56",1
"22/02/11","03:30",0.0,1.8,93.1,1013.8,319.3,1.8,2.6,319.7,0.00,0.8,6.0,"03:27:44",1
"22/02/11","03:40",0.0,1.8,93.6,1013.8,322.4,1.8,3.3,329.8,0.00,0.9,6.2,"03:38:08",1
"22/02/11","03:50",0.0,2.8,93.5,1014.0,313.6,3.6,7.2,336.3,0.00,1.9,5.8,"03:49:12",1
"22/02/11","04:00",0.0,2.5,93.5,1013.8,311.2,1.6,3.6,315.4,0.00,1.6,6.0,"03:50:32",1
"22/02/11","04:10",0.0,2.1,93.6,1014.0,299.2,1.2,2.1,336.8,0.00,1.2,5.9,"04:01:28",1
"22/02/11","04:20",0.0,1.7,93.9,1013.8,314.5,1.3,2.6,328.0,0.00,0.9,5.8,"04:19:52",1
"22/02/11","04:30",0.0,1.0,94.2,1013.8,303.3,1.6,2.5,311.4,0.00,0.2,5.9,"04:20:08",1
"22/02/11","04:40",0.0,0.7,94.3,1014.0,301.6,1.5,3.2,330.4,0.00,-0.1,5.8,"04:36:08",1
"22/02/11","04:50",0.0,0.5,94.6,1014.0,282.3,1.1,2.5,345.2,0.00,-0.2,5.8,"04:48:50",1
"22/02/11","05:00",0.0,0.5,94.6,1014.0,312.4,1.2,2.7,328.9,0.00,-0.2,5.9,"04:59:04",1
"22/02/11","05:10",0.0,0.0,95.0,1014.0,311.9,1.3,2.6,330.2,0.00,-0.7,5.7,"05:00:08",1
"22/02/11","05:20",0.0,0.3,95.0,1014.2,324.8,1.6,2.7,330.4,0.00,-0.4,5.7,"05:17:08",1
"22/02/11","05:30",0.0,0.1,95.2,1013.8,282.2,0.7,1.3,282.4,0.00,-0.5,5.4,"05:28:16",1
"22/02/11","05:40",0.0,0.2,95.3,1014.2,302.9,1.2,1.9,317.0,0.00,-0.4,5.8,"05:33:04",1
"22/02/11","05:50",0.0,0.2,95.4,1014.0,322.7,1.5,2.0,321.7,0.00,-0.4,5.4,"05:40:32",1
"22/02/11","06:00",0.0,0.1,95.5,1013.5,295.5,1.0,2.5,319.7,0.00,-0.5,5.6,"05:59:12",1
"22/02/11","06:10",0.0,1.2,95.5,1014.2,300.1,1.8,3.9,321.6,0.00,0.6,5.7,"06:03:44",1
"22/02/11","06:20",0.0,0.8,95.4,1013.8,269.6,0.7,1.4,309.4,0.00,0.2,5.5,"06:16:00",1
"22/02/11","06:30",0.0,0.8,95.7,1014.2,257.5,1.1,1.6,303.4,0.00,0.2,5.5,"06:22:16",1
"22/02/11","06:40",0.0,0.4,95.6,1014.7,293.1,1.3,3.2,335.2,0.00,-0.2,5.4,"06:37:30",1
"22/02/11","06:50",0.0,-0.1,96.0,1014.7,327.4,1.3,2.9,328.9,0.00,-0.6,5.7,"06:40:18",1
"22/02/11","07:00",0.0,-0.3,96.0,1014.9,293.4,1.2,2.1,311.5,0.00,-0.8,5.6,"06:51:44",1
"22/02/11","07:10",0.0,-0.3,96.3,1014.9,322.1,1.0,1.6,325.2,0.00,-0.8,5.4,"07:01:36",1
"22/02/11","07:20",0.0,-0.6,96.4,1014.7,300.4,1.2,2.5,324.5,0.00,-1.1,5.4,"07:16:48",1
"22/02/11","07:30",0.0,-0.6,96.6,1015.2,336.2,1.2,2.5,324.7,0.00,-1.0,5.5,"07:28:18",1
"22/02/11","07:40",0.0,-0.5,96.7,1014.7,289.9,2.1,2.4,284.8,0.00,-0.9,5.3,"07:36:50",1
"22/02/11","07:50",0.0,-0.2,96.8,1015.2,300.1,2.5,2.7,304.4,0.00,-0.6,5.3,"07:42:34",1
"22/02/11","08:00",0.0,0.2,97.0,1015.4,302.7,1.6,2.5,309.5,0.01,-0.2,5.1,"07:53:02",1
"22/02/11","08:10",0.0,1.0,97.0,1015.4,288.7,0.8,1.7,313.0,0.02,0.6,5.3,"08:01:12",1
"22/02/11","08:20",0.0,1.3,96.9,1015.6,302.0,1.7,2.1,321.0,0.03,0.9,5.3,"08:13:28",1
"22/02/11","08:30",0.0,2.3,96.8,1016.1,315.0,1.0,2.2,327.2,0.04,1.9,5.2,"08:26:00",1
"22/02/11","08:40",0.0,2.9,96.7,1016.4,252.9,0.7,1.8,300.1,0.06,2.5,5.5,"08:33:38",1
"22/02/11","08:50",0.0,3.4,96.5,1016.6,244.0,0.5,1.1,176.2,0.09,2.9,5.2,"08:48:32",1
"22/02/11","09:00",0.0,3.7,96.5,1017.3,147.9,0.6,1.3,123.8,0.12,3.2,5.4,"08:55:46",1
"22/02/11","09:10",0.0,3.8,96.4,1016.8,144.1,0.8,1.7,185.2,0.15,3.3,5.3,"09:06:00",1
"22/02/11","09:20",0.0,4.2,95.8,1017.1,237.2,0.6,1.0,211.0,0.18,3.6,5.2,"09:12:32",1
"22/02/11","09:30",0.0,4.6,95.2,1017.8,234.8,0.7,1.4,312.8,0.21,3.9,5.2,"09:23:46",1
"22/02/11","09:40",0.0,5.0,95.2,1018.0,213.4,0.7,1.2,172.7,0.23,4.3,5.3,"09:35:22",1
"22/02/11","09:50",0.0,5.4,94.6,1018.0,207.4,0.7,1.7,123.6,0.26,4.6,5.4,"09:48:32",1
"22/02/11","10:00",0.0,6.0,93.8,1018.5,223.2,0.8,1.7,249.0,0.29,5.1,5.3,"09:51:32",1
"22/02/11","10:10",0.0,6.1,92.0,1018.7,217.6,1.1,2.1,255.2,0.31,4.9,5.2,"10:03:28",1
"22/02/11","10:20",0.0,6.9,90.1,1018.7,195.0,1.0,2.2,123.5,0.33,5.4,5.3,"10:19:22",1
"22/02/11","10:30",0.0,7.2,87.9,1019.0,130.1,1.5,3.5,128.8,0.35,5.4,5.4,"10:20:24",1
"22/02/11","10:40",0.0,8.1,83.6,1019.2,190.1,2.0,3.6,181.3,0.38,5.5,5.5,"10:33:20",1
"22/02/11","10:50",0.0,8.6,77.3,1018.7,330.7,2.2,5.4,330.8,0.39,4.9,5.3,"10:47:28",1
"22/02/11","11:00",0.0,9.4,70.7,1018.7,18.8,2.1,7.7,350.1,0.42,4.4,5.5,"10:54:46",1
"22/02/11","11:10",0.0,10.0,65.8,1018.7,345.6,2.5,5.8,316.7,0.43,3.9,5.8,"11:06:18",1
"22/02/11","11:20",0.0,10.3,60.1,1019.0,337.3,2.5,6.3,335.4,0.40,2.9,5.9,"11:15:20",1
"22/02/11","11:30",0.0,10.4,55.1,1018.7,326.9,2.6,5.6,13.9,0.40,1.8,5.5,"11:21:28",1
"22/02/11","11:40",0.0,10.9,54.3,1018.5,339.1,3.0,5.0,318.0,0.47,2.1,5.8,"11:35:36",1
"22/02/11","11:50",0.0,10.3,53.9,1018.2,332.8,5.0,8.1,304.6,0.41,1.4,5.9,"11:49:20",1
"22/02/11","12:00",0.0,10.3,54.5,1018.5,325.5,4.9,9.7,334.5,0.48,1.6,5.9,"11:51:46",1
"22/02/11","12:10",0.0,11.0,54.0,1018.5,344.6,3.2,6.4,345.0,0.49,2.1,6.1,"12:04:34",1
"22/02/11","12:20",0.0,10.4,52.7,1018.5,325.1,5.4,9.8,334.0,0.50,1.2,6.1,"12:13:14",1
"22/02/11","12:30",0.0,10.8,53.6,1017.8,333.0,4.2,8.3,316.7,0.50,1.8,6.4,"12:26:20",1
"22/02/11","12:40",0.0,10.6,52.1,1017.5,342.5,4.7,9.0,348.8,0.51,1.2,6.3,"12:34:16",1
"22/02/11","12:50",0.0,11.1,50.7,1017.5,343.2,3.5,7.3,333.1,0.50,1.3,6.2,"12:44:44",1
"22/02/11","13:00",0.0,11.2,50.4,1017.3,332.3,3.9,7.3,322.2,0.50,1.3,6.5,"12:52:40",1
"22/02/11","13:10",0.0,11.5,49.1,1017.8,344.6,3.0,7.0,0.9,0.50,1.2,6.5,"13:05:20",1
"22/02/11","13:20",0.0,11.6,48.4,1017.5,335.8,3.6,7.0,330.8,0.50,1.1,6.8,"13:16:24",1
"22/02/11","13:30",0.0,11.7,48.6,1017.3,343.1,3.2,7.1,22.7,0.50,1.3,6.6,"13:28:32",1
"22/02/11","13:40",0.0,10.2,49.5,1017.1,341.8,4.6,8.9,302.1,0.21,0.1,6.9,"13:33:04",1
"22/02/11","13:50",0.0,11.0,47.5,1017.3,325.2,4.5,8.5,355.7,0.47,0.3,6.7,"13:43:04",1
"22/02/11","14:00",0.0,11.6,48.5,1017.3,346.2,3.1,6.0,9.2,0.47,1.2,7.2,"13:52:40",1
"22/02/11","14:10",0.0,11.1,49.3,1017.1,344.3,3.1,6.0,349.1,0.26,0.9,7.0,"14:09:52",1
"22/02/11","14:20",0.0,11.2,51.3,1017.1,339.4,4.0,7.1,334.8,0.30,1.6,7.1,"14:10:56",1
"22/02/11","14:30",0.0,10.8,52.5,1017.3,339.0,3.6,7.8,318.2,0.23,1.5,7.4,"14:24:40",1
"22/02/11","14:40",0.0,10.7,52.2,1017.3,1.1,2.7,4.8,36.5,0.34,1.3,7.4,"14:36:40",1
"22/02/11","14:50",0.0,10.6,52.4,1017.3,335.3,3.6,6.7,334.9,0.31,1.3,7.4,"14:46:16",1
"22/02/11","15:00",0.0,10.0,55.1,1017.1,325.6,3.6,7.1,308.9,0.14,1.4,7.3,"14:50:16",1
"22/02/11","15:10",0.0,9.8,54.9,1017.3,320.5,5.0,7.2,323.9,0.13,1.2,7.5,"15:04:32",1
"22/02/11","15:20",0.0,10.2,55.3,1017.1,334.8,3.9,7.1,334.9,0.18,1.7,7.7,"15:11:52",1
"22/02/11","15:30",0.0,10.3,55.2,1017.3,348.3,2.6,6.3,340.7,0.16,1.8,7.7,"15:29:36",1
"22/02/11","15:40",0.0,9.3,58.4,1017.3,340.8,3.5,7.0,346.0,0.02,1.6,7.6,"15:31:04",1
"22/02/11","15:50",0.0,9.6,58.4,1018.0,340.7,3.6,7.5,309.8,0.09,1.9,7.6,"15:45:04",1
"22/02/11","16:00",0.0,9.7,60.1,1017.5,343.3,3.9,5.8,334.2,0.13,2.4,7.7,"15:52:00",1
"22/02/11","16:10",0.0,9.6,58.1,1017.8,353.8,3.4,5.9,337.4,0.16,1.8,7.7,"16:00:48",1
"22/02/11","16:20",0.0,9.7,57.5,1017.5,355.0,3.1,5.7,337.7,0.15,1.8,7.7,"16:17:12",1
"22/02/11","16:30",0.0,8.9,59.3,1018.0,336.9,4.0,7.2,329.9,0.06,1.4,7.8,"16:21:42",1
"22/02/11","16:40",0.0,9.0,58.8,1017.8,333.3,4.1,8.1,317.8,0.09,1.4,7.9,"16:38:12",1
"22/02/11","16:50",0.0,9.0,59.5,1018.5,333.3,4.0,6.4,339.1,0.06,1.6,8.0,"16:49:38",1
"22/02/11","17:00",0.0,9.3,58.5,1018.5,342.0,3.5,5.8,344.5,0.05,1.6,7.7,"16:58:24",1
"22/02/11","17:10",0.0,9.3,58.6,1018.5,335.6,3.1,5.7,320.6,0.03,1.7,7.8,"17:02:16",1
"22/02/11","17:20",0.0,9.3,58.7,1018.5,332.8,2.2,7.3,321.2,0.01,1.7,7.7,"17:13:52",1
"22/02/11","17:30",0.0,8.8,58.7,1018.7,334.4,2.8,4.7,304.9,0.00,1.2,7.7,"17:26:16",1
"22/02/11","17:40",0.0,8.1,60.3,1018.5,334.4,2.7,4.3,310.5,0.00,0.9,7.7,"17:39:12",1
"22/02/11","17:50",0.0,7.8,60.6,1018.7,333.0,3.9,6.4,326.7,0.00,0.7,7.8,"17:45:44",1
"22/02/11","18:00",0.0,7.6,59.6,1019.0,322.2,4.6,7.9,325.4,0.00,0.3,7.7,"17:57:20",1
"22/02/11","18:10",0.0,7.2,60.0,1019.0,326.9,3.9,5.9,341.4,0.00,0.0,7.5,"18:01:28",1
"22/02/11","18:20",0.0,6.8,61.4,1018.7,320.9,3.4,5.6,327.6,0.00,-0.1,7.7,"18:17:04",1
"22/02/11","18:30",0.0,6.7,63.1,1018.7,323.6,3.7,5.5,316.0,0.00,0.2,7.8,"18:29:28",1
"22/02/11","18:40",0.0,6.3,64.1,1018.7,317.0,3.2,5.0,324.1,0.00,0.1,7.7,"18:30:24",1
"22/02/11","18:50",0.0,5.6,66.6,1019.0,326.2,3.1,4.4,317.4,0.00,-0.1,7.7,"18:43:36",1
"22/02/11","19:00",0.0,5.3,68.6,1019.0,324.0,3.0,4.7,337.2,0.00,0.0,7.3,"18:54:48",1
"22/02/11","19:10",0.0,4.9,70.2,1018.7,328.6,2.7,4.4,334.8,0.00,0.0,7.6,"19:06:56",1
"22/02/11","19:20",0.0,4.9,71.5,1019.0,330.2,3.1,5.2,326.1,0.00,0.2,7.7,"19:19:20",1
"22/02/11","19:30",0.0,4.9,72.1,1018.5,326.5,3.0,4.5,337.6,0.00,0.3,7.4,"19:21:44",1
"22/02/11","19:40",0.0,4.9,72.8,1018.5,328.3,3.6,5.8,343.0,0.00,0.5,7.3,"19:38:24",1
"22/02/11","19:50",0.0,5.2,73.0,1018.5,317.7,3.2,5.7,308.1,0.00,0.8,7.4,"19:47:20",1
"22/02/11","20:00",0.0,5.4,72.9,1019.0,311.1,3.0,7.4,333.6,0.00,1.0,7.5,"19:55:36",1
"22/02/11","20:10",0.0,5.3,73.1,1018.7,322.9,2.8,5.1,343.8,0.00,0.9,7.4,"20:05:20",1
"22/02/11","20:20",0.0,5.2,73.4,1019.0,285.1,1.1,3.4,340.3,0.00,0.9,7.3,"20:10:24",1
"22/02/11","20:30",0.0,5.1,73.6,1019.0,298.9,2.1,3.4,263.2,0.00,0.8,7.2,"20:21:04",1
"22/02/11","20:40",0.0,5.0,74.0,1018.7,281.5,2.2,3.2,298.1,0.00,0.8,7.3,"20:37:28",1
"22/02/11","20:50",0.0,4.8,74.2,1018.7,278.9,1.7,3.4,313.1,0.00,0.6,7.3,"20:43:36",1
"22/02/11","21:00",0.0,4.2,74.5,1019.0,306.6,1.6,2.6,319.4,0.00,0.1,7.2,"20:55:04",1
"22/02/11","21:10",0.0,3.8,75.3,1018.5,302.4,1.8,3.3,332.3,0.00,-0.1,7.0,"21:00:02",1
"22/02/11","21:20",0.0,3.2,76.1,1018.2,318.9,1.5,2.9,327.5,0.00,-0.6,7.1,"21:10:08",1
"22/02/11","21:30",0.0,2.8,77.5,1018.7,307.6,2.5,3.1,319.3,0.00,-0.7,7.0,"21:23:12",1
"22/02/11","21:40",0.0,2.5,78.7,1018.2,311.2,1.8,2.8,271.6,0.00,-0.8,7.1,"21:30:48",1
"22/02/11","21:50",0.0,2.3,79.7,1018.0,313.1,1.6,2.4,308.7,0.00,-0.8,7.0,"21:40:56",1
"22/02/11","22:00",0.0,2.1,81.0,1018.2,292.5,2.0,2.7,323.7,0.00,-0.8,7.0,"21:59:52",1
"22/02/11","22:10",0.0,1.7,82.1,1018.2,312.9,2.1,3.1,318.2,0.00,-1.0,6.8,"22:04:40",1
"22/02/11","22:20",0.0,1.3,83.3,1018.0,305.9,1.6,2.0,307.1,0.00,-1.2,6.8,"22:10:16",1
"22/02/11","22:30",0.0,1.6,84.5,1017.8,299.9,2.1,2.8,329.6,0.00,-0.7,7.0,"22:24:16",1
"22/02/11","22:40",0.0,1.9,85.3,1018.0,314.0,2.8,4.2,314.7,0.00,-0.3,6.9,"22:37:36",1
"22/02/11","22:50",0.0,1.9,85.8,1018.0,318.5,2.8,4.5,324.0,0.00,-0.2,6.7,"22:45:04",1
"22/02/11","23:00",0.0,1.5,86.3,1018.0,304.6,1.7,2.1,320.2,0.00,-0.5,6.7,"22:50:16",1
"22/02/11","23:10",0.0,1.3,86.7,1018.0,300.1,1.7,2.2,302.4,0.00,-0.6,6.6,"23:01:04",1
"22/02/11","23:20",0.0,1.3,87.2,1017.5,316.2,1.7,2.2,323.0,0.00,-0.6,6.5,"23:13:36",1
"22/02/11","23:30",0.0,1.5,87.5,1017.5,321.0,1.7,2.9,321.2,0.00,-0.3,6.7,"23:21:12",1
"22/02/11","23:40",0.0,1.6,87.9,1018.0,274.3,1.8,2.6,263.1,0.00,-0.1,6.5,"23:38:40",1
"22/02/11","23:50",0.0,1.7,88.1,1018.2,285.3,3.0,3.5,320.5,0.00,0.0,6.3,"23:49:44",1
"22/02/11","24:00",0.0,1.5,88.4,1018.0,320.8,3.4,4.4,319.5,0.00,-0.2,6.3,"23:59:28",1
